CZ-6A DEB, 56258

Orbit data source: Space-Track

CZ-6A DEB, 56258 is space debris in SSO originally from a launch on Fri, 11 Nov 2022 UTC launched from the Taiyaun Space Center, China (TSC). Debris objects in space refer to the collection of defunct objects orbiting the Earth. Examples of debris include non-operational satellites, rocket bodies, and fragments generated from explosions, collisions, or faulty payload assembly.

Loading next visibility...
Identifier
56258, 2022-151ACA
Orbit
SSO
Country
Flag of CNCN / PRC
Related business
Manufacturer
SAST
Mission
Spacecraft
Bus & Motor
Unknown
Mass
Unknown
Launch date (UTC)
2022-11-11 (3 years ago)
Launch vehicle
Unknown
Launch site
Taiyaun Space Center, China (TSC)
Object type
Payload
Rocket body
Debris
Shape & HBR
Unknown shape, 0.1 m
Radar Cross Section
Small (<0.1 m²)

Expand to show TLE details & history
Last TLE update: 16 hours ago

TLE from 16 hours ago
0 CZ-6A DEB
1 56258U 22151ACA 26129.93032029  .00007876  00000-0  15597-2 0  9992
2 56258  98.6537 173.7598 0100778 143.4908 217.3217 14.59366359168748
Epoch: 2026-05-09T22:19Z
TLE epoch observation values (Epoch: 2026-05-09T22:19:39.673Z)
Latitude
0.00003°
Longitude
-28.8962°
Altitude
755.152 km
Speed
7.447 km/s
True Right ascension
11h 35m 02s
True Declination
0° 00' 00"
Sunlit
Object was in full shadow at epoch
Visualization orbit readout
Latitude
Unknown
Longitude
Unknown
Altitude
Unknown
Speed
Unknown
Apparent Right ascension
Unknown
Apparent Declination
Unknown
Sunlit
N/A
Visualization observer readout
Local Sidereal Time
22:09:00
Azimuth
Unknown
Elevation
Unknown
Doppler factor
Unknown
Orbital elements
Apogee altitude
763.578 km
Perigee altitude
621.069 km
Semi-major axis
7,070.461 km
Eccentricity
0.01008
Inclination
98.6537°
RAAN
173.7598°
Arg. of periapsis
143.4908°
True anomaly
216.6285°
Mean anomaly
217.3217°
Eccentric anomaly
216.97441°
Mean motion
3.65066 °/min
Orbital period
98.61 mins
BSTAR
0.0015597
Loading maneuver chart data...
Computing Atmospheric mass density...
Loading historical data...
Loading historical data...
Loading historical data...
Loading historical data...
Loading historical data...
Loading historical data...
Loading historical data...

Documentation

Showing up to 5 results
|